2024-170D

Last updated on Fri Oct 04 2024 00:02:04 GMT+0000 (Coordinated Universal Time)

1 61198U 24170D 24277.60132052 .00001783 00000+0 10177-2 0 9996 2 61198 44.8617 39.4485 0007096 331.6174 28.4275 14.13060007 1873
UTC large
Height (km)
Speed (km/s)
/
Latitude / Longitude
Inclination (degrees)
Orbital Period (minutes)
Azimuth
Elevation
Range (km)
Doppler Factor

Next 0 passes for location: London (51.5072 / 0.1276)

Sorry there are no passes over London.